QFA55 PANC-PACD

Flight info

Callsign QFA55
Flight time 1h 29m
Altitude 32000
Route ENA J115 CDB
Aircraft B738/M-SDE2E3FGHIRWXY/LB1

Departure

Time 2026-05-09 10:48
Airport Ted Stevens Anchorage International Airport (PANC)

Arrival

Time 2026-05-09 12:18
Airport Cold Bay Airport (PACD)
Time Latitude Longitude Altitude Speed Heading
2026-05-09 10:35 61.17576 -149.98502 161 ft 0 kts 104°
2026-05-09 10:40 61.17581 -149.98540 160 ft 3 kts 105°
2026-05-09 10:40 61.17587 -149.98588 160 ft 3 kts 105°
2026-05-09 10:40 61.17594 -149.98637 160 ft 3 kts 105°
2026-05-09 10:40 61.17603 -149.98679 160 ft 3 kts 136°
2026-05-09 10:41 61.17624 -149.98702 160 ft 3 kts 163°
2026-05-09 10:41 61.17633 -149.98708 160 ft 0 kts 162°
2026-05-09 10:43 61.17623 -149.98701 160 ft 3 kts 162°
2026-05-09 10:43 61.17589 -149.98678 160 ft 8 kts 160°
2026-05-09 10:43 61.17517 -149.98624 160 ft 13 kts 160°
2026-05-09 10:43 61.17428 -149.98570 160 ft 14 kts 185°
2026-05-09 10:44 61.17346 -149.98658 160 ft 12 kts 214°
2026-05-09 10:44 61.17281 -149.98749 160 ft 12 kts 214°
2026-05-09 10:44 61.17212 -149.98858 160 ft 13 kts 227°
2026-05-09 10:44 61.17149 -149.99011 161 ft 15 kts 231°
2026-05-09 10:45 61.17124 -149.99189 161 ft 13 kts 271°
2026-05-09 10:46 61.17124 -149.99667 161 ft 10 kts 269°
2026-05-09 10:46 61.17126 -149.99827 161 ft 10 kts 291°
2026-05-09 10:46 61.17157 -149.99875 161 ft 0 kts 343°
2026-05-09 10:47 61.17158 -149.99875 161 ft 1 kts 343°
2026-05-09 10:47 61.17221 -149.99911 161 ft 28 kts 345°
2026-05-09 10:48 61.17607 -150.00125 161 ft 86 kts 345°
2026-05-09 10:48 61.18361 -150.00551 161 ft 136 kts 345°
2026-05-09 10:48 61.19413 -150.01144 202 ft 172 kts 345°
2026-05-09 10:48 61.20534 -150.01789 831 ft 162 kts 344°
2026-05-09 10:49 61.21672 -150.01829 1236 ft 176 kts 22°
2026-05-09 10:49 61.22609 -150.00097 1533 ft 191 kts 64°
2026-05-09 10:49 61.22883 -149.97418 2121 ft 195 kts 92°
2026-05-09 10:49 61.22396 -149.94750 2571 ft 206 kts 130°
2026-05-09 10:50 61.21174 -149.93265 3152 ft 209 kts 168°
2026-05-09 10:50 61.19723 -149.93557 3630 ft 215 kts 201°
2026-05-09 10:50 61.18387 -149.94732 4458 ft 206 kts 206°
2026-05-09 10:50 61.17008 -149.95997 4700 ft 227 kts 197°
2026-05-09 10:51 61.15431 -149.96889 5041 ft 244 kts 200°
2026-05-09 10:51 61.13875 -149.98498 5475 ft 257 kts 211°
2026-05-09 10:51 61.12327 -150.00557 5930 ft 269 kts 212°
2026-05-09 10:51 61.10716 -150.02601 6562 ft 274 kts 209°
2026-05-09 10:52 61.09031 -150.04490 7226 ft 277 kts 207°
2026-05-09 10:52 61.07283 -150.06310 7907 ft 279 kts 206°
2026-05-09 10:52 61.05537 -150.08112 8562 ft 282 kts 206°
2026-05-09 10:52 61.03786 -150.09959 9208 ft 284 kts 206°
2026-05-09 10:53 61.02045 -150.11825 9863 ft 286 kts 206°
2026-05-09 10:53 61.00233 -150.13773 10253 ft 298 kts 206°
2026-05-09 10:53 60.98345 -150.15790 10502 ft 314 kts 205°
2026-05-09 10:53 60.96353 -150.17908 10736 ft 330 kts 205°
2026-05-09 10:54 60.94268 -150.20121 11071 ft 343 kts 205°
2026-05-09 10:54 60.92130 -150.22393 11681 ft 347 kts 205°
2026-05-09 10:54 60.89982 -150.24674 12394 ft 349 kts 204°
2026-05-09 10:54 60.87823 -150.26961 13111 ft 350 kts 204°
2026-05-09 10:55 60.85652 -150.29253 13832 ft 352 kts 204°
2026-05-09 10:55 60.83471 -150.31552 14547 ft 354 kts 204°
2026-05-09 10:55 60.81297 -150.33954 15290 ft 356 kts 210°
2026-05-09 10:55 60.79366 -150.37186 16017 ft 363 kts 223°
2026-05-09 10:56 60.77863 -150.41366 16748 ft 370 kts 237°
2026-05-09 10:56 60.76774 -150.46201 17340 ft 377 kts 242°
2026-05-09 10:56 60.75755 -150.51162 17960 ft 381 kts 243°
2026-05-09 10:56 60.74748 -150.56202 18578 ft 384 kts 243°
2026-05-09 10:57 60.73725 -150.61260 19189 ft 386 kts 242°
2026-05-09 10:57 60.72675 -150.66335 19783 ft 389 kts 242°
2026-05-09 10:57 60.71606 -150.71423 20367 ft 391 kts 242°
2026-05-09 10:57 60.70529 -150.76543 20931 ft 394 kts 242°
2026-05-09 10:58 60.69554 -150.81205 21433 ft 395 kts 242°
2026-05-09 10:58 60.68473 -150.86382 21951 ft 398 kts 242°
2026-05-09 10:58 60.67381 -150.91599 22467 ft 400 kts 241°
2026-05-09 10:58 60.66282 -150.96830 22967 ft 402 kts 241°
2026-05-09 10:59 60.65172 -151.02084 23445 ft 405 kts 241°
2026-05-09 10:59 60.64053 -151.07360 23902 ft 407 kts 241°
2026-05-09 10:59 60.62926 -151.12661 24347 ft 409 kts 241°
2026-05-09 10:59 60.61789 -151.17982 24767 ft 410 kts 240°
2026-05-09 11:00 60.60384 -151.23117 25122 ft 409 kts 234°
2026-05-09 11:00 60.58903 -151.28061 25541 ft 410 kts 234°
2026-05-09 11:00 60.57404 -151.33017 25922 ft 412 kts 233°
2026-05-09 11:00 60.55897 -151.37970 26290 ft 413 kts 234°
2026-05-09 11:01 60.54379 -151.42949 26638 ft 415 kts 234°
2026-05-09 11:01 60.52860 -151.47938 26972 ft 416 kts 234°
2026-05-09 11:01 60.51333 -151.52950 27276 ft 418 kts 234°
2026-05-09 11:01 60.49797 -151.57979 27557 ft 421 kts 234°
2026-05-09 11:02 60.48242 -151.63051 27660 ft 426 kts 234°
2026-05-09 11:02 60.46667 -151.68173 27857 ft 429 kts 234°
2026-05-09 11:02 60.45091 -151.73297 28117 ft 429 kts 234°
2026-05-09 11:02 60.43510 -151.78426 28409 ft 429 kts 234°
2026-05-09 11:03 60.41932 -151.83532 28709 ft 428 kts 234°
2026-05-09 11:03 60.40350 -151.88639 28998 ft 427 kts 234°
2026-05-09 11:03 60.38770 -151.93724 29289 ft 426 kts 234°
2026-05-09 11:03 60.37195 -151.98784 29585 ft 425 kts 234°
2026-05-09 11:04 60.35621 -152.03831 29874 ft 424 kts 234°
2026-05-09 11:04 60.34049 -152.08860 30144 ft 423 kts 234°
2026-05-09 11:04 60.32476 -152.13880 30373 ft 423 kts 234°
2026-05-09 11:04 60.30900 -152.18899 30585 ft 424 kts 234°
2026-05-09 11:05 60.29322 -152.23914 30797 ft 424 kts 234°
2026-05-09 11:05 60.27737 -152.28939 30993 ft 425 kts 234°
2026-05-09 11:05 60.26150 -152.33961 31181 ft 425 kts 234°
2026-05-09 11:05 60.24558 -152.38983 31386 ft 425 kts 234°
2026-05-09 11:06 60.22963 -152.44005 31533 ft 427 kts 234°
2026-05-09 11:06 60.19784 -152.54145 31549 ft 429 kts 235°
2026-05-09 11:07 60.16635 -152.64419 31555 ft 429 kts 235°
2026-05-09 11:07 60.13473 -152.74549 31556 ft 428 kts 235°
2026-05-09 11:08 60.10303 -152.84644 31558 ft 427 kts 235°
2026-05-09 11:08 60.07139 -152.94725 31559 ft 427 kts 235°
2026-05-09 11:09 60.03961 -153.04788 31560 ft 428 kts 235°
2026-05-09 11:09 60.00772 -153.14836 31562 ft 428 kts 235°
2026-05-09 11:10 59.97574 -153.24877 31564 ft 428 kts 236°
2026-05-09 11:10 59.94369 -153.34897 31566 ft 429 kts 236°
2026-05-09 11:11 59.91152 -153.44909 31568 ft 429 kts 236°
2026-05-09 11:11 59.87930 -153.54895 31570 ft 429 kts 236°
2026-05-09 11:12 59.85224 -153.63248 31572 ft 429 kts 236°
2026-05-09 11:12 59.81984 -153.73211 31574 ft 429 kts 236°
2026-05-09 11:13 59.78211 -153.84757 31577 ft 429 kts 236°
2026-05-09 11:13 59.75485 -153.93067 31579 ft 429 kts 236°
2026-05-09 11:14 59.72224 -154.02965 31585 ft 429 kts 236°
2026-05-09 11:14 59.68952 -154.12856 31588 ft 429 kts 236°
2026-05-09 11:15 59.65668 -154.22743 31590 ft 430 kts 236°
2026-05-09 11:15 59.62374 -154.32617 31590 ft 430 kts 236°
2026-05-09 11:16 59.59073 -154.42470 31590 ft 430 kts 236°
2026-05-09 11:16 59.55760 -154.52308 31592 ft 431 kts 236°
2026-05-09 11:17 59.52392 -154.62087 31593 ft 432 kts 234°
2026-05-09 11:17 59.48882 -154.71692 31593 ft 432 kts 234°
2026-05-09 11:18 59.45398 -154.81342 31594 ft 433 kts 235°
2026-05-09 11:18 59.41919 -154.91028 31595 ft 434 kts 235°
2026-05-09 11:19 59.38385 -155.00733 31597 ft 434 kts 235°
2026-05-09 11:19 59.34868 -155.10369 31598 ft 434 kts 236°
2026-05-09 11:20 59.31349 -155.19991 31600 ft 435 kts 236°
2026-05-09 11:20 59.27813 -155.29608 31602 ft 436 kts 236°
2026-05-09 11:21 59.24265 -155.39216 31604 ft 436 kts 236°
2026-05-09 11:21 59.20706 -155.48819 31605 ft 436 kts 236°
2026-05-09 11:22 59.17141 -155.58398 31606 ft 436 kts 236°
2026-05-09 11:22 59.13564 -155.67969 31607 ft 437 kts 236°
2026-05-09 11:23 59.09986 -155.77506 31606 ft 436 kts 236°
2026-05-09 11:23 59.06398 -155.87031 31606 ft 437 kts 236°
2026-05-09 11:24 59.02801 -155.96539 31606 ft 437 kts 236°
2026-05-09 11:24 58.99195 -156.06034 31604 ft 437 kts 236°
2026-05-09 11:25 58.95579 -156.15518 31602 ft 438 kts 236°
2026-05-09 11:25 58.91950 -156.24996 31599 ft 438 kts 236°
2026-05-09 11:26 58.88316 -156.34451 31595 ft 438 kts 236°
2026-05-09 11:26 58.84648 -156.43957 31592 ft 438 kts 236°
2026-05-09 11:27 58.80998 -156.53377 31589 ft 438 kts 236°
2026-05-09 11:27 58.75646 -156.67116 31585 ft 439 kts 236°
2026-05-09 11:28 58.67627 -156.84855 31588 ft 442 kts 229°
2026-05-09 11:28 58.59092 -157.01863 31586 ft 443 kts 229°
2026-05-09 11:29 58.50485 -157.18744 31591 ft 443 kts 229°
2026-05-09 11:29 58.43959 -157.31513 31595 ft 444 kts 229°
2026-05-09 11:30 58.39634 -157.39916 31600 ft 444 kts 229°
2026-05-09 11:30 58.35306 -157.48315 31604 ft 444 kts 229°
2026-05-09 11:31 58.30965 -157.56697 31608 ft 445 kts 229°
2026-05-09 11:31 58.26614 -157.65065 31618 ft 445 kts 229°
2026-05-09 11:32 58.22258 -157.73418 31623 ft 445 kts 229°
2026-05-09 11:32 58.17891 -157.81757 31627 ft 446 kts 229°
2026-05-09 11:33 58.13517 -157.90079 31630 ft 446 kts 229°
2026-05-09 11:33 58.06911 -158.02590 31634 ft 446 kts 229°
2026-05-09 11:34 58.02521 -158.10867 31636 ft 446 kts 229°
2026-05-09 11:34 57.98122 -158.19124 31637 ft 446 kts 229°
2026-05-09 11:35 57.93720 -158.27362 31642 ft 446 kts 229°
2026-05-09 11:35 57.89311 -158.35573 31646 ft 446 kts 228°
2026-05-09 11:36 57.84899 -158.43757 31648 ft 446 kts 228°
2026-05-09 11:36 57.80474 -158.51939 31650 ft 447 kts 228°
2026-05-09 11:37 57.76044 -158.60099 31653 ft 447 kts 228°
2026-05-09 11:37 57.71605 -158.68244 31666 ft 447 kts 228°
2026-05-09 11:38 57.67160 -158.76374 31673 ft 447 kts 228°
2026-05-09 11:38 57.62704 -158.84494 31676 ft 448 kts 227°
2026-05-09 11:39 57.58241 -158.92597 31678 ft 448 kts 227°
2026-05-09 11:40 57.51528 -159.04730 31672 ft 448 kts 227°
2026-05-09 11:40 57.47048 -159.12789 31680 ft 448 kts 227°
2026-05-09 11:41 57.42558 -159.20838 31683 ft 449 kts 227°
2026-05-09 11:41 57.38057 -159.28879 31684 ft 449 kts 227°
2026-05-09 11:42 57.33517 -159.36959 31685 ft 450 kts 227°
2026-05-09 11:42 57.29004 -159.44963 31685 ft 450 kts 227°
2026-05-09 11:43 57.24482 -159.52954 31686 ft 450 kts 227°
2026-05-09 11:43 57.19953 -159.60928 31686 ft 450 kts 227°
2026-05-09 11:44 57.15415 -159.68892 31687 ft 450 kts 226°
2026-05-09 11:44 57.11645 -159.75484 31687 ft 450 kts 226°
2026-05-09 11:45 57.06330 -159.84747 31687 ft 450 kts 226°
2026-05-09 11:45 57.02548 -159.91314 31688 ft 450 kts 226°
2026-05-09 11:46 56.97996 -159.99193 31688 ft 450 kts 226°
2026-05-09 11:46 56.93402 -160.07117 31686 ft 451 kts 226°
2026-05-09 11:47 56.88823 -160.14987 31684 ft 452 kts 226°
2026-05-09 11:47 56.84226 -160.22857 31684 ft 453 kts 226°
2026-05-09 11:48 56.79629 -160.30699 31684 ft 452 kts 226°
2026-05-09 11:48 56.75031 -160.38539 31686 ft 452 kts 226°
2026-05-09 11:49 56.70434 -160.46353 31692 ft 452 kts 225°
2026-05-09 11:49 56.65826 -160.54149 31698 ft 453 kts 225°
2026-05-09 11:50 56.61211 -160.61933 31703 ft 453 kts 225°
2026-05-09 11:50 56.56586 -160.69707 31704 ft 453 kts 225°
2026-05-09 11:51 56.51961 -160.77453 31705 ft 453 kts 225°
2026-05-09 11:51 56.47326 -160.85190 31705 ft 453 kts 225°
2026-05-09 11:52 56.42684 -160.92910 31707 ft 454 kts 225°
2026-05-09 11:52 56.38035 -161.00615 31707 ft 454 kts 225°
2026-05-09 11:53 56.33381 -161.08304 31708 ft 454 kts 225°
2026-05-09 11:53 56.28679 -161.16043 31205 ft 454 kts 225°
2026-05-09 11:53 56.26362 -161.19845 30611 ft 449 kts 225°
2026-05-09 11:54 56.24065 -161.23606 30040 ft 444 kts 225°
2026-05-09 11:54 56.21792 -161.27325 29482 ft 439 kts 225°
2026-05-09 11:54 56.19542 -161.31002 28931 ft 435 kts 225°
2026-05-09 11:54 56.17313 -161.34639 28385 ft 431 kts 224°
2026-05-09 11:55 56.15105 -161.38234 27845 ft 427 kts 224°
2026-05-09 11:56 56.04318 -161.55713 25210 ft 410 kts 224°
2026-05-09 11:56 56.02210 -161.59113 24695 ft 407 kts 224°
2026-05-09 11:56 56.00120 -161.62478 24186 ft 403 kts 224°
2026-05-09 11:57 55.98042 -161.65820 23679 ft 400 kts 223°
2026-05-09 11:57 55.95979 -161.69131 23176 ft 397 kts 223°
2026-05-09 11:57 55.93932 -161.72413 22677 ft 394 kts 223°
2026-05-09 11:57 55.91900 -161.75666 22182 ft 391 kts 223°
2026-05-09 11:58 55.89885 -161.78886 21692 ft 388 kts 223°
2026-05-09 11:58 55.87881 -161.82085 21204 ft 385 kts 223°
2026-05-09 11:58 55.85897 -161.85246 20722 ft 382 kts 223°
2026-05-09 11:58 55.83924 -161.88383 20242 ft 379 kts 224°
2026-05-09 11:59 55.81969 -161.91488 19767 ft 375 kts 224°
2026-05-09 11:59 55.80028 -161.94564 19295 ft 372 kts 222°
2026-05-09 11:59 55.77892 -161.97125 18848 ft 370 kts 208°
2026-05-09 11:59 55.75481 -161.98672 18390 ft 369 kts 193°
2026-05-09 12:00 55.72939 -161.99071 17924 ft 367 kts 178°
2026-05-09 12:00 55.70407 -161.98632 17446 ft 364 kts 174°
2026-05-09 12:00 55.67879 -161.98086 17107 ft 357 kts 173°
2026-05-09 12:00 55.65401 -161.97520 16746 ft 367 kts 173°
2026-05-09 12:01 55.62856 -161.96957 16307 ft 367 kts 174°
2026-05-09 12:01 55.60336 -161.96426 15862 ft 362 kts 174°
2026-05-09 12:01 55.57897 -161.95923 15625 ft 345 kts 174°
2026-05-09 12:01 55.55573 -161.95441 15259 ft 328 kts 174°
2026-05-09 12:02 55.53365 -161.94977 14915 ft 312 kts 174°
2026-05-09 12:02 55.51235 -161.94528 14570 ft 306 kts 174°
2026-05-09 12:02 55.49136 -161.94087 14163 ft 302 kts 174°
2026-05-09 12:02 55.47056 -161.93651 13735 ft 300 kts 174°
2026-05-09 12:03 55.44987 -161.93219 13298 ft 298 kts 174°
2026-05-09 12:03 55.42933 -161.92790 12866 ft 296 kts 174°
2026-05-09 12:03 55.40915 -161.92368 12650 ft 289 kts 174°
2026-05-09 12:03 55.38935 -161.91954 12513 ft 285 kts 174°
2026-05-09 12:04 55.36980 -161.91547 12388 ft 281 kts 174°
2026-05-09 12:04 55.35063 -161.91147 12257 ft 273 kts 174°
2026-05-09 12:04 55.33203 -161.90760 12136 ft 266 kts 174°
2026-05-09 12:04 55.31385 -161.90636 12024 ft 258 kts 193°
2026-05-09 12:05 55.29784 -161.91848 11879 ft 251 kts 218°
2026-05-09 12:05 55.28401 -161.93742 11570 ft 254 kts 221°
2026-05-09 12:05 55.27033 -161.95682 11259 ft 250 kts 221°
2026-05-09 12:05 55.25697 -161.97582 10977 ft 246 kts 221°
2026-05-09 12:06 55.24369 -161.99466 10705 ft 245 kts 221°
2026-05-09 12:06 55.23046 -162.01334 10437 ft 244 kts 221°
2026-05-09 12:06 55.21725 -162.03195 10178 ft 243 kts 221°
2026-05-09 12:06 55.20406 -162.05049 9911 ft 242 kts 221°
2026-05-09 12:07 55.19096 -162.06892 9653 ft 241 kts 221°
2026-05-09 12:07 55.17789 -162.08729 9396 ft 240 kts 221°
2026-05-09 12:07 55.16488 -162.10556 9137 ft 239 kts 221°
2026-05-09 12:07 55.15191 -162.12375 8880 ft 238 kts 221°
2026-05-09 12:08 55.13900 -162.14186 8625 ft 237 kts 221°
2026-05-09 12:08 55.12597 -162.16010 8367 ft 236 kts 221°
2026-05-09 12:08 55.11317 -162.17801 8113 ft 235 kts 221°
2026-05-09 12:08 55.10045 -162.19579 7861 ft 234 kts 221°
2026-05-09 12:09 55.08776 -162.21348 7606 ft 233 kts 221°
2026-05-09 12:09 55.07512 -162.23113 7355 ft 232 kts 221°
2026-05-09 12:09 55.06254 -162.24867 7106 ft 231 kts 221°
2026-05-09 12:10 55.02876 -162.30615 6399 ft 224 kts 245°
2026-05-09 12:10 55.02382 -162.33164 6164 ft 221 kts 261°
2026-05-09 12:10 55.02075 -162.35786 5911 ft 220 kts 261°
2026-05-09 12:11 55.01776 -162.38395 5663 ft 219 kts 261°
2026-05-09 12:11 55.01478 -162.40998 5418 ft 218 kts 261°
2026-05-09 12:11 55.01178 -162.43590 5178 ft 218 kts 261°
2026-05-09 12:11 55.00877 -162.46168 4940 ft 217 kts 261°
2026-05-09 12:12 55.00577 -162.48742 4702 ft 216 kts 261°
2026-05-09 12:12 55.00279 -162.51310 4466 ft 216 kts 261°
2026-05-09 12:12 54.99981 -162.53867 4232 ft 215 kts 261°
2026-05-09 12:12 54.99976 -162.56405 4011 ft 206 kts 287°
2026-05-09 12:13 55.00666 -162.58509 3804 ft 201 kts 317°
2026-05-09 12:13 55.01850 -162.59727 3588 ft 198 kts 337°
2026-05-09 12:13 55.03097 -162.60606 3357 ft 187 kts 339°
2026-05-09 12:13 55.04252 -162.61383 3139 ft 170 kts 339°
2026-05-09 12:14 55.05339 -162.62117 2945 ft 166 kts 339°
2026-05-09 12:14 55.06404 -162.62842 2767 ft 164 kts 339°
2026-05-09 12:14 55.07444 -162.63556 2595 ft 156 kts 339°
2026-05-09 12:14 55.08425 -162.64231 2438 ft 148 kts 338°
2026-05-09 12:15 55.09374 -162.64886 2270 ft 146 kts 338°
2026-05-09 12:15 55.10324 -162.65541 2058 ft 146 kts 338°
2026-05-09 12:15 55.11278 -162.66200 1861 ft 145 kts 338°
2026-05-09 12:15 55.12215 -162.66848 1662 ft 146 kts 337°
2026-05-09 12:16 55.13157 -162.67499 1480 ft 146 kts 337°
2026-05-09 12:16 55.14106 -162.68157 1270 ft 146 kts 337°
2026-05-09 12:16 55.15046 -162.68804 1106 ft 145 kts 338°
2026-05-09 12:16 55.15978 -162.69439 926 ft 144 kts 337°
2026-05-09 12:17 55.16900 -162.70088 722 ft 142 kts 336°
2026-05-09 12:17 55.17818 -162.70730 509 ft 143 kts 338°
2026-05-09 12:17 55.18741 -162.71365 322 ft 142 kts 338°
2026-05-09 12:17 55.19655 -162.71998 140 ft 139 kts 336°
2026-05-09 12:18 55.20202 -162.72378 107 ft 106 kts 338°
2026-05-09 12:18 55.20581 -162.72631 106 ft 18 kts 345°
2026-05-09 12:18 55.20596 -162.72672 106 ft 6 kts 212°
2026-05-09 12:18 55.20512 -162.72605 106 ft 25 kts 153°
2026-05-09 12:19 55.20293 -162.72440 106 ft 42 kts 160°
2026-05-09 12:19 55.20025 -162.72254 106 ft 37 kts 158°
2026-05-09 12:19 55.19888 -162.72141 106 ft 16 kts 130°
2026-05-09 12:19 55.19857 -162.71973 106 ft 14 kts 97°
2026-05-09 12:20 55.19877 -162.71831 106 ft 12 kts 34°
2026-05-09 12:20 55.19915 -162.71799 106 ft 3 kts 24°
2026-05-09 12:20 55.19920 -162.71795 106 ft 1 kts 24°
2026-05-09 12:20 55.19937 -162.71784 106 ft 4 kts 16°
2026-05-09 12:21 55.19981 -162.71761 106 ft 8 kts 26°
2026-05-09 12:21 55.20000 -162.71693 106 ft 6 kts 109°
2026-05-09 12:21 55.19983 -162.71677 106 ft 0 kts 179°